Flag for Austria Weather past 2 weeks in Kapfenberg, Styria, Austria

Now
64 °F

Fog.


Feels Like: 64 °F
Forecast: 56 / 73 °F
Wind: 2 mph from North

Location: Graz-Thalerhof-Flughafen

Current Time: Jul 31, 2014 at 4:20:16 AM

Latest Report: Jul 31, 2014 at 3:50 AM


Visibility: 3 mi

Pressure: 29.77 "Hg

Humidity: 100%

Dew point: 64 °F

Location of KapfenbergLocation

Historic Weather in Kapfenberg — Graph

°F

Kapfenberg temperature yesterday

Maximum temperature yesterday: 77 °F (at 3:50 PM)
Minimum temperature yesterday: 61 °F (at 3:50 AM)
Average temperature yesterday: 67 °F

Past Weeks' High & Low Weather Summary

 TemperatureHumidityPressure
High88 °F (Jul 20, 3:50 PM)100% (Jul 16, 4:50 AM)30.15 "Hg (Jul 16, 4:50 AM)
Low55 °F (Jul 24, 4:20 AM)40% (Jul 18, 11:50 AM)29.71 "Hg (Jul 30, 4:50 PM)
Average70 °F77%29.93 "Hg
* Reported Jul 16 2:20 AM — Jul 31 2:50 AM, Kapfenberg, Weather by CustomWeather, © 2014

Note: Actual official high and low records may vary slightly from our data, if they occured in-between our weather recording intervals... More about our weather records

Advertising

Kapfenberg weather history for previous 24 hours

 ConditionsComfort  
Time TempWeatherWind HumidityBarometerVisibility
2:50 AM
Jul 31
64 °FFog.2 mph100%29.77 "Hg2 mi
2:20 AM64 °FMild.2 mph94%29.80 "Hg2 mi
1:50 AM64 °FFog.3 mph100%29.80 "Hg3 mi
1:20 AM64 °FFog.1 mph94%29.80 "Hg3 mi
12:50 AM64 °FFog.1 mph94%29.77 "Hg3 mi
12:20 AM64 °FFog.3 mph94%29.77 "Hg2 mi
11:50 PM
Jul 30
64 °FPassing clouds.5 mph100%29.77 "Hg4 mi
11:20 PM64 °FPassing clouds.1 mph100%29.74 "Hg4 mi
10:50 PM64 °FPassing clouds.2 mph100%29.74 "Hg4 mi
10:20 PM66 °FPartly cloudy.5 mph94%29.74 "Hg5 mi
9:50 PM66 °FPassing clouds.3 mph94%29.74 "HgN/A
9:20 PM66 °FBroken clouds.3 mph94%29.74 "HgN/A
8:50 PM66 °FLight rain. Broken clouds.2 mph94%29.74 "HgN/A
8:20 PM66 °FLight rain. Broken clouds.7 mph94%29.74 "HgN/A
7:50 PM66 °FLight rain. Partly sunny.5 mph94%29.74 "HgN/A
7:20 PM66 °FLight rain. Partly sunny.5 mph94%29.74 "HgN/A
6:50 PM66 °FThunderstorms. Partly sunny.5 mph94%29.74 "HgN/A
6:20 PM68 °FThunderstorms. Partly sunny.7 mph88%29.71 "HgN/A
5:50 PM72 °FThunderstorms. Partly sunny.5 mph73%29.74 "HgN/A
5:20 PM72 °FPartly sunny.2 mph73%29.74 "HgN/A
4:50 PM75 °FPartly sunny.3 mph61%29.71 "HgN/A
4:20 PM75 °FBroken clouds.3 mph61%29.74 "HgN/A
3:50 PM77 °FBroken clouds.3 mph61%29.74 "HgN/A
3:20 PM75 °FScattered clouds.2 mph65%29.74 "HgN/A
2:50 PM73 °FScattered clouds.6 mph69%29.74 "HgN/A
2:20 PM72 °FBroken clouds.5 mph65%29.77 "HgN/A
1:50 PM72 °FBroken clouds.7 mph69%29.77 "HgN/A
1:20 PM70 °FBroken clouds.9 mph73%29.77 "HgN/A
12:50 PM68 °FBroken clouds.7 mph88%29.80 "HgN/A
12:20 PM68 °FSprinkles. Broken clouds.5 mph88%29.80 "HgN/A
11:50 AM68 °FSprinkles. Broken clouds.5 mph88%29.80 "HgN/A
11:20 AM68 °FPartly sunny.2 mph88%29.80 "HgN/A
10:50 AM66 °FPartly sunny.2 mph94%29.77 "HgN/A
10:20 AM66 °FSprinkles. Partly sunny.5 mph94%29.80 "Hg5 mi
9:50 AM66 °FSprinkles. Partly sunny.1 mph88%29.77 "HgN/A
9:20 AM66 °FSprinkles. Partly sunny.2 mph88%29.77 "HgN/A
8:50 AM66 °FPartly sunny.2 mph88%29.77 "HgN/A
8:20 AM66 °FBroken clouds.2 mph88%29.77 "HgN/A
7:50 AM64 °FBroken clouds.6 mph94%29.74 "HgN/A
7:20 AM64 °FBroken clouds.6 mph94%29.77 "HgN/A
6:50 AM64 °FBroken clouds.2 mph94%29.77 "Hg6 mi
6:20 AM63 °FPassing clouds.3 mph100%29.77 "Hg6 mi
5:50 AM63 °FPartly cloudy.3 mph94%29.74 "Hg6 mi
5:20 AM63 °FPassing clouds.3 mph94%29.77 "HgN/A
4:50 AM61 °FClear.5 mph94%29.74 "Hg10 mi
4:20 AM63 °FPassing clouds.3 mph94%29.74 "HgN/A
Weather by CustomWeather, © 2014

See weather overviewHow to use our weather pages